Retour au catalogue

STARLINK-32636

ActifCommunicationsVLEO
NORAD 62232·PAYLOAD·🇺🇸 United States

Lancé Dec 5, 2024 depuis Vandenberg Space Force Base

Loading…

Prochains Passages (prochaines 24 heures)

TLE

FraisSource: CelesTrak SupGP

Époque: Sep 14, 2026, 14:38 UTC

1 62232C 24231Q   26257.61020833 -.00045346  00000+0 -13386-2 0  2575
2 62232  53.1600  61.4100 0001119  94.0692 240.8848 15.34439343    10

Suivez STARLINK-32636 en temps réel avec AllMySat

Download on the App Store